Regional Weather Roundup
Issued by NWS

Home | Current Version | Previous Version | Graphics & Text | Print | Product List | Glossary On
Versions: 1 2 3 4 5 6 7 8 9 10 11 12 13 14 15 16 17 18 19 20 21 22 23 24 25 26 27 28 29 30 31 32 33 34 35 36 37 38 39 40 41 42 43 44 45 46 47 48 49 50
000
ASUS43 KOAX 251310
RWRNE

WEATHER ROUNDUP FOR NEBRASKA
NATIONAL WEATHER SERVICE OMAHA NE
800 AM CDT MON JUL 25 2016

NOTES: SATELLITE DATA IS BEING USED TO AUGMENT CLOUD COVER ABOVE
       12000 FEET.
       "FAIR" INDICATES FEW OR NO CLOUDS BELOW 12,000 FEET WITH NO
       SIGNIFICANT WEATHER AND/OR OBSTRUCTIONS TO VISIBILITY.

  * THESE STATIONS DO NOT REPORT WEATHER SUCH AS RAIN...SNOW OR FOG.

NEZ001>004-019>022-054>056-251400-
NEBRASKA PANHANDLE

CITY           SKY/WX    TMP DP  RH WIND       PRES   REMARKS
SCOTTSBLUFF    SUNNY     61  55  81 E10       30.16F
ALLIANCE       SUNNY     61  59  93 SE8       30.18S
CHADRON        SUNNY     65  55  70 CALM      30.13R
KIMBALL        SUNNY     57  57 100 SE6       30.22S
SIDNEY         SUNNY     60  56  86 S7        30.22F
$$

NEZ057>060-069>072-079>082-251400-
SOUTHWEST NEBRASKA

CITY           SKY/WX    TMP DP  RH WIND       PRES   REMARKS
NORTH PLATTE   SUNNY     63  61  93 E6        30.18S
IMPERIAL       SUNNY     63  60  90 CALM      30.19R
LEXINGTON      CLOUDY    64  62  93 CALM      30.18S
MCCOOK         CLOUDY    65  62  90 NE6       30.16S FOG
OGALLALA       SUNNY     62  59  92 CALM      30.20S
$$

NEZ005>010-023>029-035>040-094-251400-
NORTH CENTRAL NEBRASKA

CITY           SKY/WX    TMP DP  RH WIND       PRES   REMARKS
VALENTINE      SUNNY     65  59  81 SW3       30.15S
AINSWORTH      SUNNY     65  56  74 S6        30.16S
BROKEN BOW     CLOUDY    62  61  96 E3        30.18R
O`NEILL        SUNNY     65  59  81 CALM      30.16S
ORD            MOSUNNY   65  60  84 CALM      30.16R
THEDFORD       SUNNY     61  60  96 CALM      30.19S
$$

NEZ041-046>049-061>064-073>077-083>087-251400-
SOUTH CENTRAL NEBRASKA

CITY           SKY/WX    TMP DP  RH WIND       PRES   REMARKS
GRAND ISLAND   CLOUDY    67  63  87 SE5       30.17R
AURORA         CLOUDY    65  65  97 CALM      30.17R
HASTINGS       PTSUNNY   69  62  78 SE9       30.18R
HEBRON         CLOUDY    68  65  90 CALM      30.15R
HOLDREGE       CLOUDY    66  64  91 NE3       30.17R
KEARNEY *      CLOUDY    66  63  88 CALM      30.19R
YORK           CLOUDY    68  64  88 SE5       30.16R
$$

NEZ011>018-030>034-042>045-251400-
NORTHEAST NEBRASKA

CITY           SKY/WX    TMP DP  RH WIND       PRES   REMARKS
NORFOLK        SUNNY     66  62  87 CALM      30.13S
ALBION         CLOUDY    65  60  85 CALM      30.15S
BLAIR          MOSUNNY   69  65  86 N9        30.12S
FREMONT        MOSUNNY   69  64  84 CALM      30.13R
TEKAMAH        SUNNY     68  64  87 N6        30.12R
WAYNE          SUNNY     62  60  93 CALM      30.14S
$$

NEZ050>053-065>068-078-088>093-251400-
SOUTHEAST NEBRASKA

CITY           SKY/WX    TMP DP  RH WIND       PRES   REMARKS
LINCOLN        PTSUNNY   71  65  81 CALM      30.13R
OMAHA EPPLEY   MOSUNNY   70  64  81 NW3       30.11R
BEATRICE       CLOUDY    68  65  89 E5        30.12R
FALLS CITY     CLOUDY    70  66  87 CALM      30.09R
NEBRASKA CITY  CLOUDY    68  68 100 CALM      30.11S
PLATTSMOUTH    PTSUNNY   70  66  86 NE3       30.11S
$$

NEZ044-045-051>053-067-251400-
OMAHA AREA

CITY           SKY/WX    TMP DP  RH WIND       PRES   REMARKS
OMAHA EPPLEY   MOSUNNY   70  64  81 NW3       30.11R
BLAIR          MOSUNNY   69  65  86 N9        30.12S
FREMONT        MOSUNNY   69  64  84 CALM      30.13R
MILLARD        MOSUNNY   73  65  76 SE3       30.11S
OFFUTT AFB     MOSUNNY   71  65  81 E3        30.11R
PLATTSMOUTH    PTSUNNY   70  66  86 NE3       30.11S
WAHOO          PTSUNNY   69  65  88 CALM      30.13R
$$




USA.gov is the U.S. government's official web portal to all federal, state and local government web resources and services.